When you browse on this site, cookies collect data to enhance your experience and personalize the content and advertising you see.
Visit our Privacy Policy to learn more. By continuing to use the site, you agree to this use of cookies and data.
  • In Czech Republic
  • List of Countries
  • For 7 days
  • Water Temperature
  • Satellite Maps
  • Weather Map
  • Weather Widgets
  • user-avatar
    Login

    Hourly Weather Manisa

    Today, 10 December, Monday

    Time Temperature Precipitation Wind Pressure Humidity
    00:00 +9°C° 0 mm 2 mps 748 mmHg 95%
    01:00 +9°C° 0 mm 2 mps 748 mmHg 94%
    02:00 +10°C° 0 mm 2 mps 748 mmHg 94%
    03:00 +10°C° 0.1 mm 2 mps 748 mmHg 93%
    04:00 +10°C° 0.1 mm 2 mps 748 mmHg 93%
    05:00 +10°C° 0.1 mm 2 mps 747 mmHg 92%
    06:00 +10°C° 0.1 mm 2 mps 747 mmHg 92%
    07:00 +10°C° 0.1 mm 3 mps 747 mmHg 92%
    08:00 +10°C° 0.1 mm 3 mps 747 mmHg 91%
    09:00 +11°C° 0 mm 4 mps 746 mmHg 85%
    10:00 +13°C° 0 mm 5 mps 746 mmHg 78%
    11:00 +14°C° 0 mm 6 mps 745 mmHg 71%
    12:00 +14°C° 1.3 mm 6 mps 744 mmHg 74%
    13:00 +14°C° 1.3 mm 6 mps 744 mmHg 77%
    14:00 +12°C° 1.3 mm 7 mps 743 mmHg 79%
    15:00 +13°C° 4.2 mm 6 mps 742 mmHg 83%
    16:00 +12°C° 4.2 mm 5 mps 742 mmHg 87%
    17:00 +12°C° 4.2 mm 4 mps 742 mmHg 91%
    18:00 +12°C° 1.6 mm 4 mps 742 mmHg 91%
    19:00 +11°C° 1.6 mm 4 mps 743 mmHg 91%
    20:00 +11°C° 1.6 mm 3 mps 743 mmHg 92%
    21:00 +11°C° 0.2 mm 3 mps 744 mmHg 91%
    22:00 +10°C° 0.2 mm 3 mps 745 mmHg 90%
    23:00 +10°C° 0.2 mm 3 mps 745 mmHg 90%

    Tomorrow, 11 December, Tuesday

    Time Temperature Precipitation Wind Pressure Humidity
    00:00 +9°C° 0.4 mm 3 mps 746 mmHg 89%
    01:00 +9°C° 0.4 mm 3 mps 747 mmHg 88%
    02:00 +9°C° 0.4 mm 3 mps 747 mmHg 87%
    03:00 +8°C° 0.1 mm 3 mps 747 mmHg 86%
    04:00 +8°C° 0.1 mm 2 mps 748 mmHg 86%
    05:00 +7°C° 0.1 mm 2 mps 748 mmHg 85%
    06:00 +7°C° 0 mm 2 mps 749 mmHg 86%
    07:00 +8°C° 0 mm 1 mps 749 mmHg 86%
    08:00 +8°C° 0 mm 1 mps 750 mmHg 86%
    09:00 +9°C° 0 mm 1 mps 750 mmHg 80%
    10:00 +10°C° 0 mm 1 mps 751 mmHg 73%
    11:00 +11°C° 0 mm 1 mps 751 mmHg 67%
    12:00 +11°C° 0 mm 1 mps 751 mmHg 64%
    13:00 +12°C° 0 mm 1 mps 751 mmHg 61%
    14:00 +12°C° 0 mm 1 mps 751 mmHg 58%
    15:00 +11°C° 0 mm 1 mps 751 mmHg 62%
    16:00 +11°C° 0 mm 1 mps 751 mmHg 65%
    17:00 +10°C° 0 mm 1 mps 751 mmHg 69%
    18:00 +10°C° 0.2 mm 1 mps 751 mmHg 71%
    19:00 +10°C° 0.2 mm 1 mps 751 mmHg 74%
    20:00 +9°C° 0.2 mm 1 mps 751 mmHg 76%
    21:00 +9°C° 0.4 mm 1 mps 751 mmHg 79%
    22:00 +9°C° 0.4 mm 1 mps 751 mmHg 81%
    23:00 +9°C° 0.4 mm 1 mps 751 mmHg 83%

    Day after tomorrow, 12 December, Wednesday

    Time Temperature Precipitation Wind Pressure Humidity
    00:00 +8°C° 0.2 mm 1 mps 752 mmHg 85%
    01:00 +8°C° 0.2 mm 1 mps 752 mmHg 86%
    02:00 +8°C° 0.2 mm 1 mps 752 mmHg 88%
    03:00 +7°C° 0 mm 1 mps 752 mmHg 89%
    04:00 +7°C° 0 mm 1 mps 752 mmHg 90%
    05:00 +6°C° 0 mm 1 mps 752 mmHg 90%
    06:00 +6°C° 0 mm 1 mps 753 mmHg 90%
    07:00 +6°C° 0 mm 1 mps 754 mmHg 89%
    08:00 +7°C° 0 mm 1 mps 754 mmHg 88%
    09:00 +8°C° 0 mm 1 mps 755 mmHg 82%
    10:00 +9°C° 0 mm 1 mps 755 mmHg 75%
    11:00 +10°C° 0 mm 1 mps 755 mmHg 69%
    12:00 +10°C° 0.1 mm 1 mps 755 mmHg 65%
    13:00 +9°C° 0.1 mm 2 mps 755 mmHg 60%
    14:00 +10°C° 0.1 mm 2 mps 755 mmHg 56%
    15:00 +9°C° 0 mm 2 mps 755 mmHg 60%
    16:00 +9°C° 0 mm 1 mps 756 mmHg 63%
    17:00 +8°C° 0 mm 1 mps 756 mmHg 67%
    18:00 +8°C° 0 mm 1 mps 756 mmHg 69%
    19:00 +6°C° 0 mm 0 mps 757 mmHg 70%
    20:00 +6°C° 0 mm 0 mps 757 mmHg 72%
    21:00 +5°C° 0 mm 0 mps 757 mmHg 73%
    22:00 +6°C° 0 mm 1 mps 757 mmHg 74%
    23:00 +6°C° 0 mm 1 mps 758 mmHg 75%

    13 December, Thursday

    Time Temperature Precipitation Wind Pressure Humidity
    00:00 +6°C° 0 mm 1 mps 758 mmHg 76%
    01:00 +6°C° 0 mm 1 mps 758 mmHg 77%
    02:00 +5°C° 0 mm 1 mps 758 mmHg 78%
    03:00 +5°C° 0 mm 1 mps 757 mmHg 78%
    04:00 +5°C° 0 mm 1 mps 757 mmHg 78%
    05:00 +4°C° 0 mm 2 mps 757 mmHg 79%
    06:00 +4°C° 0 mm 2 mps 757 mmHg 78%
    07:00 +4°C° 0 mm 2 mps 757 mmHg 78%
    08:00 +4°C° 0 mm 2 mps 757 mmHg 77%
    09:00 +6°C° 0 mm 2 mps 757 mmHg 72%
    10:00 +7°C° 0 mm 3 mps 757 mmHg 66%
    11:00 +8°C° 0 mm 3 mps 757 mmHg 60%
    12:00 +9°C° 0.3 mm 3 mps 756 mmHg 60%
    13:00 +9°C° 0.3 mm 3 mps 756 mmHg 60%
    14:00 +9°C° 0.3 mm 2 mps 755 mmHg 60%
    15:00 +9°C° 0.1 mm 2 mps 755 mmHg 63%
    16:00 +8°C° 0.1 mm 2 mps 755 mmHg 65%
    17:00 +8°C° 0.1 mm 2 mps 754 mmHg 68%
    18:00 +8°C° 0 mm 2 mps 754 mmHg 68%
    19:00 +8°C° 0 mm 2 mps 755 mmHg 69%
    20:00 +8°C° 0 mm 2 mps 755 mmHg 70%
    21:00 +8°C° 0 mm 2 mps 755 mmHg 71%
    22:00 +8°C° 0 mm 2 mps 755 mmHg 73%
    23:00 +8°C° 0 mm 2 mps 756 mmHg 75%

    14 December, Friday

    Time Temperature Precipitation Wind Pressure Humidity
    00:00 +7°C° 0 mm 2 mps 756 mmHg 77%
    01:00 +7°C° 0 mm 2 mps 756 mmHg 78%
    02:00 +7°C° 0 mm 2 mps 756 mmHg 80%
    03:00 +7°C° 0.3 mm 2 mps 756 mmHg 82%
    04:00 +8°C° 0.3 mm 2 mps 756 mmHg 83%
    05:00 +8°C° 0.3 mm 2 mps 756 mmHg 85%
    06:00 +8°C° 0.3 mm 2 mps 756 mmHg 86%
    07:00 +8°C° 0.3 mm 2 mps 756 mmHg 86%
    08:00 +8°C° 0.3 mm 2 mps 756 mmHg 87%
    09:00 +10°C° 0.1 mm 2 mps 757 mmHg 83%
    10:00 +12°C° 0.1 mm 2 mps 757 mmHg 80%
    11:00 +13°C° 0.1 mm 2 mps 757 mmHg 76%
    12:00 +14°C° 0 mm 1 mps 757 mmHg 75%
    13:00 +15°C° 0 mm 1 mps 757 mmHg 73%
    14:00 +15°C° 0 mm 1 mps 757 mmHg 72%
    15:00 +15°C° 0 mm 1 mps 757 mmHg 76%
    16:00 +14°C° 0 mm 1 mps 757 mmHg 79%
    17:00 +13°C° 0 mm 1 mps 757 mmHg 83%
    18:00 +13°C° 0 mm 1 mps 758 mmHg 84%
    19:00 +12°C° 0 mm 1 mps 758 mmHg 85%
    20:00 +12°C° 0 mm 1 mps 758 mmHg 87%
    21:00 +11°C° 0 mm 1 mps 758 mmHg 87%
    22:00 +11°C° 0 mm 1 mps 759 mmHg 87%
    23:00 +11°C° 0 mm 1 mps 759 mmHg 88%

    15 December, Saturday

    Time Temperature Precipitation Wind Pressure Humidity
    00:00 +11°C° 0 mm 1 mps 759 mmHg 88%
    01:00 +11°C° 0 mm 1 mps 759 mmHg 88%
    02:00 +11°C° 0 mm 1 mps 759 mmHg 88%
    03:00 +11°C° 0 mm 1 mps 759 mmHg 88%
    04:00 +11°C° 0 mm 1 mps 758 mmHg 88%
    05:00 +11°C° 0 mm 1 mps 758 mmHg 88%
    06:00 +10°C° 0 mm 2 mps 759 mmHg 88%
    07:00 +10°C° 0 mm 2 mps 759 mmHg 87%
    08:00 +10°C° 0 mm 2 mps 759 mmHg 87%
    09:00 +12°C° 0 mm 2 mps 759 mmHg 81%
    10:00 +14°C° 0 mm 2 mps 759 mmHg 75%
    11:00 +15°C° 0 mm 2 mps 759 mmHg 69%
    12:00 +16°C° 0 mm 2 mps 759 mmHg 66%
    13:00 +17°C° 0 mm 2 mps 758 mmHg 64%
    14:00 +17°C° 0 mm 2 mps 758 mmHg 61%
    15:00 +16°C° 0 mm 2 mps 758 mmHg 67%
    16:00 +15°C° 0 mm 2 mps 758 mmHg 72%
    17:00 +14°C° 0 mm 2 mps 758 mmHg 77%
    18:00 +13°C° 0 mm 2 mps 758 mmHg 80%
    19:00 +12°C° 0 mm 2 mps 758 mmHg 82%
    20:00 +12°C° 0 mm 2 mps 758 mmHg 84%
    21:00 +12°C° 0 mm 2 mps 758 mmHg 85%
    22:00 +10°C° 0 mm 2 mps 758 mmHg 86%
    23:00 +10°C° 0 mm 2 mps 758 mmHg 86%
    Show more